St. Charles, IL

3:14 AM CDT on June 25, 2017 (GMT -0500)
Saint Charles County Smartt

Weather History for KSET - October, 2013

Change the Weather History Date:

Tuesday, October 8, 2013

  Actual Average (KSTL) Record (KSTL)
Temperature  
Mean Temperature 60 °F -  
Max Temperature 75 °F 70 °F 92 °F (1980)
Min Temperature 44 °F 50 °F 30 °F (2000)
Degree Days  
Heating Degree Days 6    
Growing Degree Days 10 (Base 50)    
Moisture  
Dew Point 45 °F    
Average Humidity 78    
Maximum Humidity 100    
Minimum Humidity 33    
Precipitation  
Precipitation 0.00 in - - ()
Sea Level Pressure  
Sea Level Pressure 30.16 in    
Wind  
Wind Speed 2 mph (SE)    
Max Wind Speed 10 mph    
Max Gust Speed 20 mph    
Visibility 8 miles    
Events      
Averages and records for this station are not official NWS values.
T = Trace of Precipitation, MM = Missing Value Source: NWS Daily Summary

Daily Weather History Graph

Daily Weather History Graph

Search for Another Location

Airport or City:

Trip Planner

Search our weather history database for the weather conditions in past years. The results will help you decide how hot, cold, wet, or windy it might be!

Date:

Astronomy

Oct. 08, 2013 Rise Set
Actual Time 7:04 AM CDT 6:33 PM CDT
Civil Twilight 6:37 AM CDT 6:59 PM CDT
Nautical Twilight 6:06 AM CDT 7:30 PM CDT
Astronomical Twilight 5:36 AM CDT 8:01 PM CDT
Moon 10:56 AM CDT (10/8) 9:11 PM CDT (10/8)
Length of Visible Light 12h 21m
Length of Day
11h 28m
Waxing Crescent, 16% of the Moon is Illuminated
Oct 8
Waxing Crescent
Oct 11
First Quarter
Oct 18
Full
Oct 26
Last Quarter
Nov 3
New

Hourly Weather History & Observations

Time (CDT) Temp. Dew Point Humidity Pressure Visibility Wind Dir Wind Speed Gust Speed Precip Events Conditions
12:01 AM 48.2 °F 48.2 °F 100% 30.14 in 2.5 mi Calm Calm - N/A   Partly Cloudy
12:08 AM 48.2 °F 46.4 °F 93% 30.14 in 10.0 mi Calm Calm - N/A   Clear
12:38 AM 46.4 °F 44.6 °F 93% 30.14 in 4.0 mi Calm Calm - N/A   Partly Cloudy
12:54 AM 48.0 °F 45.0 °F 89% 30.14 in 10.0 mi Calm Calm - N/A   Partly Cloudy
1:19 AM 44.6 °F 42.8 °F 93% 30.15 in 1.2 mi Calm Calm - N/A   Clear
1:44 AM 46.4 °F 46.4 °F 100% 30.15 in 3.0 mi Calm Calm - N/A   Clear
1:54 AM 48.0 °F 45.0 °F 89% 30.15 in 4.0 mi Calm Calm - N/A   Clear
2:19 AM 46.4 °F 44.6 °F 93% 30.16 in 10.0 mi Calm Calm - N/A   Scattered Clouds
2:54 AM 46.0 °F 44.1 °F 93% 30.16 in 10.0 mi Calm Calm - N/A   Partly Cloudy
3:28 AM 46.4 °F 44.6 °F 93% 30.16 in 1.8 mi Calm Calm - N/A   Clear
3:37 AM 46.4 °F 44.6 °F 93% 30.16 in 4.0 mi Calm Calm - N/A   Clear
3:54 AM 46.9 °F 44.1 °F 90% 30.16 in 10.0 mi Calm Calm - N/A   Clear
4:22 AM 46.4 °F 44.6 °F 93% 30.16 in 8.0 mi Calm Calm - N/A   Partly Cloudy
4:54 AM 46.0 °F 43.0 °F 89% 30.16 in 10.0 mi Calm Calm - N/A   Clear
5:07 AM 46.4 °F 42.8 °F 87% 30.17 in 10.0 mi Calm Calm - N/A   Partly Cloudy
5:47 AM 44.6 °F 42.8 °F 93% 30.18 in 8.0 mi Calm Calm - N/A   Mostly Cloudy
5:54 AM 45.0 °F 43.0 °F 93% 30.17 in 10.0 mi Calm Calm - N/A   Mostly Cloudy
6:27 AM 46.4 °F 44.6 °F 93% 30.18 in 1.5 mi Calm Calm - N/A   Mostly Cloudy
6:49 AM 44.6 °F 42.8 °F 93% 30.18 in 0.8 mi Calm Calm - N/A   Mist
6:54 AM 44.1 °F 43.0 °F 96% 30.18 in 0.8 mi Calm Calm - N/A   Mist
7:41 AM 44.6 °F 42.8 °F 93% 30.18 in 2.0 mi Calm Calm - N/A   Mostly Cloudy
7:46 AM 44.6 °F 44.6 °F 100% 30.18 in 9.0 mi Calm Calm - N/A   Scattered Clouds
7:54 AM 46.0 °F 46.0 °F 100% 30.19 in 10.0 mi Calm Calm - N/A   Partly Cloudy
8:54 AM 55.9 °F 52.0 °F 87% 30.20 in 10.0 mi Calm Calm - N/A   Clear
9:54 AM 62.1 °F 51.1 °F 67% 30.20 in 10.0 mi Calm Calm - N/A   Clear
10:54 AM 69.1 °F 50.0 °F 51% 30.19 in 10.0 mi SE 6.9 mph - N/A   Clear
11:54 AM 72.0 °F 46.0 °F 40% 30.18 in 10.0 mi East 10.4 mph - N/A   Clear
12:54 PM 73.9 °F 46.0 °F 37% 30.16 in 10.0 mi SE 9.2 mph 19.6 mph N/A   Clear
1:54 PM 75.0 °F 45.0 °F 34% 30.14 in 10.0 mi SSE 6.9 mph 17.3 mph N/A   Clear
2:54 PM 75.0 °F 44.1 °F 33% 30.13 in 10.0 mi SSE 10.4 mph - N/A   Clear
3:54 PM 75.0 °F 44.1 °F 33% 30.12 in 10.0 mi SSE 9.2 mph - N/A   Clear
4:54 PM 73.9 °F 46.0 °F 37% 30.12 in 10.0 mi SE 10.4 mph - N/A   Clear
5:54 PM 72.0 °F 46.9 °F 41% 30.12 in 10.0 mi SE 10.4 mph - N/A   Clear
6:54 PM 64.9 °F 46.9 °F 52% 30.12 in 10.0 mi ESE 6.9 mph - N/A   Clear
7:54 PM 57.0 °F 46.9 °F 69% 30.13 in 10.0 mi East 6.9 mph - N/A   Clear
8:54 PM 54.0 °F 46.9 °F 77% 30.14 in 10.0 mi ESE 8.1 mph - N/A   Clear
9:54 PM 53.1 °F 46.9 °F 80% 30.14 in 10.0 mi East 6.9 mph - N/A   Clear
10:54 PM 53.1 °F 46.9 °F 80% 30.13 in 10.0 mi North - - N/A   Clear
11:54 PM 52.0 °F 46.9 °F 83% 30.13 in 10.0 mi East 5.8 mph - N/A   Clear